Tracking 18987 objects as of 25-Feb-2018
HD Live streaming from Space Station
objects crossing your sky now

SL-16 DEB

Track SL-16 DEB now!
10-day predictions


NORAD ID: 24284
Int'l Code: 1995-058G
Perigee: 828.8 km
Apogee: 845.4 km
Inclination: 70.9 °
Period: 101.5 minutes
Semi major axis: 7208 km
RCS: 0.041 m2 (small)
Launch date: October 31, 1995
Source: Commonwealth of Independent States (former USSR) (CIS)
Launch site: TYURATAM MISSILE AND SPACE COMPLEX (TTMTR)

Note: This is SATELLITE DEBRIS
aabbcc
Your satellite tracking list
Your tracking list is empty




NASA's NSSDC Master Catalog

Two Line Element Set (TLE):
1 24284U 95058G   18055.96255092 -.00000087  00000-0 -18258-4 0  9999
2 24284  70.8644  22.2298 0011518  13.5641 346.5790 14.18646364153604
Source of the keplerian elements: AFSPC